Regional Weather Roundup
Issued by NWS

Home | Current Version | Previous Version | Graphics & Text | Print | Product List | Glossary On
Versions: 1 2 3 4 5 6 7 8 9 10 11 12 13 14 15 16 17 18 19 20 21 22 23 24 25 26 27 28 29 30 31 32 33 34 35 36 37 38 39 40 41 42 43 44 45 46 47 48 49 50
000
ASUS43 KMKX 260321
RWRWI

WISCONSIN REGIONAL WEATHER ROUNDUP
NATIONAL WEATHER SERVICE MILWAUKEE/SULLIVAN WI
1000 PM CDT MON JUL 25 2016

NOTE: "FAIR" INDICATES FEW OR NO CLOUDS BELOW 12,000 FEET WITH NO
SIGNIFICANT WEATHER AND/OR OBSTRUCTIONS TO VISIBILITY.

WIZ001-002-006>008-014>016-023>028-260400-
NORTHWEST WISCONSIN

CITY           SKY/WX    TMP DP  RH WIND       PRES   REMARKS
SUPERIOR ARPT  CLEAR     72  66  80 SW6       29.97S
ASHLAND        CLEAR     67  63  87 SW6       29.98S
HAYWARD        CLEAR     69  64  84 CALM      30.02R
SIREN          CLEAR     72  64  78 CALM      30.03
CUMBERLAND     CLEAR     66  63  88 W3        30.05R
RICE LAKE      CLEAR     68  64  87 CALM      30.05R
CHETEK         CLEAR     70  67  90 CALM      30.04R
LADYSMITH      CLEAR     68  63  83 CALM      30.05R
EAU CLAIRE     CLEAR     72  67  84 CALM      30.02R
MENOMONIE      CLEAR     73  63  72 SW5       30.04R
NEW RICHMOND   CLEAR     71  65  81 CALM      30.04S
OSCEOLA        CLEAR     71  66  85 CALM      30.05S
$$

WIZ003>005-009-010-017-018-260400-
NORTH CENTRAL WISCONSIN

CITY           SKY/WX    TMP DP  RH WIND       PRES   REMARKS
MANITOWISH WTR CLEAR     62  62 100 CALM      30.03S
ARBOR VITAE    CLEAR     65  61  86 CALM      30.04S
WOODRUFF       CLEAR     65  61  86 CALM      30.04S
RHINELANDER    CLEAR     61  58  90 W5        30.05R
EAGLE RIVER    CLEAR     60  59  96 CALM      30.03S
LAND O LAKES   CLEAR     60  59  94 CALM      30.04S
PHILLIPS       CLEAR     65  63  95 CALM      30.03S
TOMAHAWK       CLEAR     62  60  91 CALM      30.05R
MEDFORD        CLEAR     60  60 100 CALM      30.04S
MERRILL        CLEAR     66  62  87 CALM      30.04S
$$

WIZ029-030-035-036-043>047-260400-
CENTRAL WISCONSIN

CITY           SKY/WX    TMP DP  RH WIND       PRES   REMARKS
WAUSAU         CLEAR     72  61  68 CALM      30.02R
MOSINEE        CLEAR     70  63  78 W6        30.05R
MARSHFIELD     CLEAR     70  62  76 W6        30.04R
STEVENS POINT  CLEAR     65  62  88 CALM      30.04R
WAUPACA        CLEAR     71  67  87 CALM      30.02R
WAUTOMA        CLEAR     68  64  87 CALM      30.04R
WISC RAPIDS    CLEAR     68  62  81 CALM      30.05R
CAMP DOUGLAS   CLEAR     66  64  93 CALM      30.04R
$$

WIZ011>013-019>022-031-037>040-048>050-260400-
NORTHEAST WISCONSIN

CITY           SKY/WX    TMP DP  RH WIND       PRES   REMARKS
ANTIGO         CLEAR     63  60  91 CALM      30.04S
SHAWANO        CLEAR     69  64  84 CALM      30.00S
OCONTO         CLEAR     66  66 100 CALM      29.98R
STURGEON BAY   CLEAR     71  64  78 SW3       29.99R
GREEN BAY      CLEAR     69  67  93 W3        29.99R
MANITOWOC      CLEAR     74  63  68 W6        30.00R
APPLETON       PTCLDY    72  61  68 VRB5      30.00R
CLINTONVILLE   CLEAR     68  61  77 CALM      30.01R
OSHKOSH        CLEAR     73  62  68 W3        30.01R
$$

WIZ032>034-041-042-053>061-260400-
SOUTHWEST WISCONSIN

CITY           SKY/WX    TMP DP  RH WIND       PRES   REMARKS
LA CROSSE      CLEAR     74  67  78 SE5       30.03R
SPARTA         CLEAR     67  65  94 CALM      30.05S
VIROQUA        CLEAR     67  65  95 CALM      30.07R
BOSCOBEL       CLEAR     70  67  90 CALM      30.05R
PRAIRIE DU CHI CLEAR     71  65  83 CALM      30.04S
PLATTEVILLE    CLEAR     73  67  81 CALM      30.06R
$$

WIZ056-057-062-063-064-067-068-260400-
SOUTH CENTRAL WISCONSIN

CITY           SKY/WX    TMP DP  RH WIND       PRES   REMARKS
REEDSBURG      CLEAR     71  66  85 CALM      30.04R
BARABOO/DELLS  CLEAR     70  63  79 CALM      30.05R
LONE ROCK      CLEAR     70  67  90 CALM      30.04R
MINERAL POINT  CLEAR     72  64  78 CALM      30.07R
MADISON        PTCLDY    70  65  84 CALM      30.03R
MIDDLETON      CLEAR     70  68  94 CALM      30.05R
WATERTOWN      PTCLDY    69  69 100 CALM      30.03R
MONROE         CLEAR     73  63  68 NW6       30.05R
JANESVILLE     NOT AVBL
$$

WIZ051-052-058>065-066-070>072-260400-
SOUTHEAST WISCONSIN

CITY           SKY/WX    TMP DP  RH WIND       PRES   REMARKS
MILWAUKEE      PTCLDY    76  64  66 CALM      30.01R
WAUKESHA       CLEAR     70  61  73 CALM      30.04R
MILWAUKEE/TIMM CLEAR     73  59  60 CALM      30.03R
RACINE         CLEAR     74  62  66 S3        30.03R
BURLINGTON     CLEAR     69  66  90 CALM      30.03R
KENOSHA        CLEAR     72  61  68 CALM      30.03R
FOND DU LAC    CLEAR     71  63  75 W6        30.02R
SHEBOYGAN      CLEAR     68  64  87 CALM      30.01R
WEST BEND      CLEAR     68  63  83 CALM      30.03R
JUNEAU         CLEAR     70  63  80 CALM      30.04S
$$

LSZ147-162-260400-
LAKE SUPERIOR

STATION/POSITION TIME  TEMP    WIND        PRES    WAVE
                       AIR SEA DIR/SP/G            HT/PER
                 (UTC) (F)     (DEG/KT/KT) (MB)    (FT/S)
W MID LAKE BUOY  0250   64 60  220/  6/  6 1013.7R   1/ 4
DEVILS ISLAND    0300   74     220/  9/ 11 1014.2R
SAXON HARBOR     0200   72     210/  4/  5 1014.6S
$$

LMZ867-665-643>646-260400-
LAKE MICHIGAN

STATION/POSITION TIME  TEMP    WIND        PRES    WAVE
                       AIR SEA DIR/SP/G            HT/PER
                 (UTC) (F)     (DEG/KT/KT) (MB)    (FT/S)
CHAMBERS ISLAND  0200   68      CALM  /  1 1014.6R
S GREEN BAY BUOY 0300   76 75  270/  6/  6   N/A
N MID LAKE BUOY  0250   71 70  150/  4/  6 1014.4R   1
NORTHPORT PIER   0200   74     120/  5/  8 1014.2S
SISTER BAY       0206   72        CALM       N/A
ALGOMA LAKESHORE 0213             CALM       N/A
KEWAUNEE LAKESHO 0200   72     290/  2/  2   N/A
SHEBOYGAN LAKESH 0300   76     250/  4/  4 1016.0R
PORT WASHINGTON  0240   68      CALM  /  1 1016.9R
ATWATER BUOY     0300   64 53  170/  4/  4 1017.8R
MILWAUKEE LAKESH 0210   69     180/  3/  3   N/A
S MID LAKE BUOY  0250   74 74  210/  4/  4 1015.7R   0
KENOSHA   LAKESH 0300   77     210/  4/  6 1016.3R
$$

TC  - TEMPERATURE IN CELSIUS
VSB - VISIBILITY IN STATUTE MILES
WCI - WIND CHILL INDEX
HX  - HEAT INDEX




USA.gov is the U.S. government's official web portal to all federal, state and local government web resources and services.